This is the latest recevied weather packets stored in our database for station/object KC2WGU. If no packets are shown the sender has not sent any weather packets the latest 10 day(s).
| Time | Temp. | Humidity | Pressure | Rain* | Wind** | Luminosity | Snow |
|---|---|---|---|---|---|---|---|
| 1788216621 | 18.89° C | 90% | 1016.7 hPa | 0 mm | - | 329 W/m² | - |
| 1788216021 | 19.44° C | 90% | 1016.9 hPa | 0 mm | - | 329 W/m² | - |
| 1788215422 | 19.44° C | 89% | 1017.1 hPa | 0 mm | - | 329 W/m² | - |
| 1788214822 | 19.44° C | 89% | 1017.1 hPa | 0 mm | - | 329 W/m² | - |
| 1788214221 | 19.44° C | 88% | 1017.2 hPa | 0 mm | - | 329 W/m² | - |
| 1788213021 | 19.44° C | 87% | 1017.2 hPa | 0 mm | - | 329 W/m² | - |
| 1788211821 | 19.44° C | 87% | 1017.3 hPa | 0 mm | - | 329 W/m² | - |
| 1788211221 | 19.44° C | 87% | 1017.4 hPa | 0 mm | - | 329 W/m² | - |
| 1788210621 | 20° C | 87% | 1017.4 hPa | 0 mm | - | 329 W/m² | - |
| 1788210021 | 19.44° C | 87% | 1017.4 hPa | 0 mm | - | 329 W/m² | - |
| 1788209421 | 20° C | 86% | 1017.3 hPa | 0 mm | - | 329 W/m² | - |
| 1788208821 | 20° C | 82% | 1017.5 hPa | 0 mm | - | 329 W/m² | - |
| 1788208222 | 20° C | 81% | 1017.5 hPa | 0 mm | - | 329 W/m² | - |
| 1788207621 | 20.56° C | 79% | 1017.4 hPa | 0 mm | - | 329 W/m² | - |
| 1788207021 | 21.11° C | 78% | 1017.3 hPa | 0 mm | - | 329 W/m² | - |
| 1788205820 | 21.11° C | 77% | 1017.4 hPa | 0 mm | - | 329 W/m² | - |
| 1788205221 | 21.11° C | 78% | 1017.4 hPa | 0 mm | - | 329 W/m² | - |
| 1788204621 | 21.11° C | 77% | 1017.4 hPa | 0 mm | - | 329 W/m² | - |
| 1788204021 | 21.11° C | 78% | 1017.5 hPa | 0 mm | - | 329 W/m² | - |
| 1788203421 | 21.11° C | 82% | 1017.7 hPa | 0 mm | - | 329 W/m² | - |
| 1788202821 | 21.11° C | 82% | 1017.8 hPa | 0 mm | - | 329 W/m² | - |
| 1788202221 | 20.56° C | 81% | 1018 hPa | 0 mm | - | 329 W/m² | - |
| 1788201621 | 20.56° C | 82% | 1018 hPa | 0 mm | - | 329 W/m² | - |
| 1788201021 | 20.56° C | 83% | 1018.1 hPa | 0 mm | - | 329 W/m² | - |
| 1788200420 | 20.56° C | 84% | 1018.4 hPa | 0 mm | - | 329 W/m² | - |
* Rain latest hour (hover to see other rain measurements)
** Current wind speed in m/s (hover to see current wind gust speed)